Regional Weather Roundup
Issued by NWS

Home | Current Version | Previous Version | Graphics & Text | Print | Product List | Glossary On
Versions: 1 2 3 4 5 6 7 8 9 10 11 12 13 14 15 16 17 18 19 20 21 22 23 24 25 26 27 28 29 30 31 32 33 34 35 36 37 38 39 40 41 42 43 44 45 46 47 48 49 50
000
ASUS43 KMPX 240310
RWRMN
WEATHER ROUNDUP FOR MINNESOTA
NATIONAL WEATHER SERVICE TWIN CITIES/CHANHASSEN MN
1000 PM CDT WED AUG 23 2017


NOTE: "FAIR" INDICATES FEW OR NO CLOUDS BELOW 12,000 FEET WITH NO
SIGNIFICANT WEATHER AND/OR OBSTRUCTIONS TO VISIBILITY. N/A MEANS
CURRENT SKY AND/OR WEATHER CONDITIONS ARE NOT AVAILABLE.

MNZ060>063-068>070-240400-
   Twin Cities Metro

CITY           SKY/WX    TMP DP  RH WIND       PRES   REMARKS
TWIN CITIES    PTCLDY    68  52  56 E8        30.04S
ST PAUL        CLEAR     65  54  67 NE3       30.05S
CRYSTAL        CLOUDY    65  51  60 E5        30.03S
BLAINE         PTCLDY    64  55  72 NE5       30.04S
LAKEVILLE      CLEAR     55  55 100 CALM      30.05S
EDEN PRAIRIE   CLEAR     66  55  67 E5        30.03R
SOUTH ST PAUL  CLEAR     65  50  58 CALM      30.04F
LAKE ELMO      FAIR      59  54  82 CALM      30.06S
$$
MNZ001>005-007-008-013>017-022>024-027-028-240400-
   Northwest Minnesota

CITY           SKY/WX    TMP DP  RH WIND       PRES   REMARKS
BEMIDJI        CLOUDY    54  52  94 SE3       30.10F
HALLOCK        PTCLDY    54  52  94 E8        30.10R
ROSEAU         HAZE      46  43  87 CALM      30.12R VSB 1/4
WARROAD        CLEAR     48  45  87 N3        30.12S
THIEF RVR FALL CLOUDY    54  52  93 E8        30.10R
CROOKSTON      MOCLDY    55  54  94 E7        30.08R
FOSSTON          N/A     52  50  93 E3        30.09S
DETROIT LAKES  CLOUDY    61  50  67 E15G21    30.11R
MOORHEAD       MOCLDY    63  52  67 E17G23    30.04R
PARK RAPIDS    HVY RAIN  58  55  90 E5        30.11R FOG
MAHNOMEN       CLOUDY    55  51  89 SE6       30.07F
$$
MNZ006-009>011-018-025>026-240400-
   North Central Minnesota

CITY           SKY/WX    TMP DP  RH WIND       PRES   REMARKS
BAUDETTE       CLEAR     49  48  97 CALM      30.11R
FLAG ISLAND    CLEAR     55  52  88 W3        30.10R
INTL FALLS     PTCLDY    49  47  93 CALM      30.10S
WASKISH        PTCLDY    48  48 100 CALM      30.11R
BIG FORK       CLOUDY    54  52  94 CALM      30.10S
LONGVILLE      CLOUDY    54  54 100 CALM      30.10F
GRAND RAPIDS   CLOUDY    55  54  96 CALM      30.12S
CRANE LAKE     PTCLDY    46  45  93 CALM      30.12R
ORR            CLOUDY    54  48  82 CALM      30.08S
COOK           CLOUDY    54  50  87 CALM      30.10S
WALKER         CLOUDY    55  54  94 E5        30.10S
$$
MNZ012-019>021-037-240400-
   Northeast Minnesota

CITY           SKY/WX    TMP DP  RH WIND       PRES   REMARKS
DULUTH         LGT RAIN  53  52  96 NW6       30.10R
ELY            PTCLDY    50  46  87 NE3       30.10R
HIBBING        CLOUDY    53  52  96 NW5       30.10R
EVELETH        CLOUDY    58  47  67 W5        30.11R
DULUTH HARBOR  LGT RAIN  57  54  88 NW14      30.10R
TWO HARBORS    CLOUDY    59  54  82 CALM      30.07R
SILVER BAY     CLOUDY    54  52  94 CALM      30.07R
GRAND MARAIS     N/A     55  40  56 N7        30.08S
G MARAIS ARPRT CLEAR     43  37  81 N5        30.11S
$$
MNZ029>031-032-039>041-046>048-054>057-064-240400-
   West Central Minnesota

CITY           SKY/WX    TMP DP  RH WIND       PRES   REMARKS
FERGUS FALLS   CLOUDY    66  54  63 E6        30.03R
WHEATON        CLEAR     59  55  88 E6        30.03R
MORRIS         PTCLDY    63  55  77 E8        30.02R
ALEXANDRIA     CLOUDY    63  56  78 E3        30.06R
ELBOW LAKE     FAIR      66  55  68 SE7       30.04R
WADENA         CLOUDY    59  50  72 NE12      30.09R
GLENWOOD       CLOUDY    61  55  82 NE5       30.06R
APPLETON       CLEAR     63  55  77 NE7       30.01R
BENSON         CLEAR     63  54  72 SE3       30.04R
ORTONVILLE     CLEAR     63  55  77 MISG      30.00R
MADISON        CLEAR     61  61 100 SE6       30.00S
WILLMAR        FAIR      63  55  77 E5        30.05R
$$
MNZ033>034-036-042>043-049>051-058-059-240400-
   Central Minnesota

CITY           SKY/WX    TMP DP  RH WIND       PRES   REMARKS
ST CLOUD       CLOUDY    64  56  75 E6        30.05R
SAUK CENTRE    FAIR      63  56  76 E3        30.06R
PAYNESVILLE    CLOUDY    60  57  90 CALM      30.05R
AITKIN         RAIN      54  52  94 CALM      30.11S
PINE RIVER     HVY RAIN  52  50  93 CALM      30.15R
BRAINERD       LGT RAIN  56  53  90 NE10      30.10R
STAPLES        DRIZZLE   59  50  72 NE9G16    30.10R
LONG PRAIRIE   CLOUDY    63  54  72 NE7       30.07R
LITTLE FALLS   CLOUDY    63  52  67 CALM      30.08R
LITCHFIELD     PTCLDY    64  57  77 CALM      30.05R
BUFFALO        PTCLDY    62  54  75 CALM      30.06R
MAPLE LAKE     CLOUDY    63  56  79 CALM      30.06R
HUTCHINSON     CLEAR     57  56  97 CALM      30.05S
$$
MNZ037-044-045-052-053-240400-
   East Central Minnesota

CITY           SKY/WX    TMP DP  RH WIND       PRES   REMARKS
PRINCETON      CLOUDY    64  55  72 CALM      30.06R
MORA           LGT RAIN  59  48  67 NE5       30.10R
CAMBRIDGE      CLOUDY    66  52  59 CALM      30.07R
RUSH CITY      CLOUDY    61  52  73 CALM      30.07R
MOOSE LAKE     RAIN      54  50  87 CALM      30.09S
HINCKLEY       LGT RAIN  61  52  72 N9        30.10R
CLOQUET        DRIZZLE   55  52  88 NW6       30.11S
MCGREGOR       CLOUDY    54  52  94 CALM      30.11F
$$
MNZ071>073-080-081-089-090-097-098-240400-
   Southwest Minnesota

CITY           SKY/WX    TMP DP  RH WIND       PRES   REMARKS
MONTEVIDEO     CLEAR     61  55  82 S7        30.01F
GRANITE FALLS  CLEAR     65  57  76 E7        30.03S
CANBY          PTCLDY    63  59  87 CALM      30.01S
MARSHALL       MOCLDY    65  60  84 SE7       30.01
REDWOOD FALLS  CLEAR     66  54  65 SE7       30.02R
OLIVIA         CLEAR     63  54  72 CALM      30.03R
PIPESTONE      MOCLDY    66  61  82 S6        30.02S
WINDOM         CLOUDY    66  57  72 SE7       30.04S
WORTHINGTON    CLOUDY    66  59  78 S7        30.05R
JACKSON        CLOUDY    66  55  68 CALM      30.05F
TRACY          CLOUDY    66  59  77 S6        30.02S
$$
MNZ065>067-074>077-082>085-091>093-240400-
   South Central Minnesota

CITY           SKY/WX    TMP DP  RH WIND       PRES   REMARKS
MANKATO        CLEAR     64  56  75 SE5       30.05R
NEW ULM        CLEAR     64  54  68 E5        30.04R
ST JAMES       MOCLDY    63  59  88 SE5       30.05S
FAIRMONT       CLOUDY    64  60  87 SE6       30.05R
GLENCOE        CLEAR     61  59  92 CALM      30.03F
FARIBAULT      CLEAR     57  55  94 CALM      30.05S
OWATONNA       CLEAR     57  55  94 CALM      30.05S
WASECA         CLEAR     55  54  94 CALM      30.06S
ALBERT LEA     CLEAR     63  59  88 CALM      30.06S
$$
MNZ078>079-086>088-094>096-240400-
   Southeast Minnesota

CITY           SKY/WX    TMP DP  RH WIND       PRES   REMARKS
ROCHESTER      CLEAR     61  53  75 E6        30.07R
RED WING       CLEAR     57  54  88 CALM      30.05R
STANTON        CLEAR     58  56  91 CALM      30.04R
DODGE CENTER   CLEAR     57  54  88 CALM      30.06S
WINONA         CLEAR     59  55  88 CALM      30.05S
AUSTIN         CLEAR     61  54  77 CALM      30.06S
PRESTON        CLEAR     60  53  76 CALM      30.07S
$$
ABBREVIATIONS USED IN REMARKS
   TC - TEMPERATURES IN CELSIUS
  WCI - WIND CHILL INDEX
   HX - HEAT INDEX
  VSB - VISIBILITY
$$



USA.gov is the U.S. government's official web portal to all federal, state and local government web resources and services.